[[{"header":{"parameterUnit":"m.s-1","parameterCategory":1,"la1":30.2991,"la2":30.254,"lo1":-89.0895,"lo2":-89.0444,"dy":0.0017,"dx":0.0017,"nx":28,"ny":28,"refTime":"2024-03-29T21:00:00:Z","depth":0,"parameterNumber":2,"parameterNumberName":"U-component_of_WINDS"},"data":[0,0,0,0,0,0,0,0,0,0,0,0,0,0,0,0,0,0,0,0,0,0,0,0,0,0,0,0,0,0,0,0,0,0,0,0,0,0,0,0,0,0,0,0,0,0,0,0,0,0,0,0,0,0,0,0,0,0,-2.1893,-2.1894,0,-2.197,-2.1971,-2.1972,-2.1971,-2.197,-2.1969,-2.1968,-2.2048,-2.2051,-2.2054,0,0,0,0,0,0,0,0,0,0,0,0,0,-2.1744,-2.1747,-2.1893,-2.1894,-2.1895,-2.197,-2.1971,-2.1972,-2.1971,-2.197,-2.1969,-2.1968,-2.2047,-2.205,-2.2054,0,0,0,0,0,0,0,0,0,0,0,0,0,-2.1814,-2.1747,-2.1893,-2.1903,-2.1905,-2.197,-2.1971,-2.1973,-2.1971,-2.197,-2.1968,-2.1967,-2.2045,-2.205,-2.2054,-2.2114,0,0,-2.2069,-2.2071,0,0,0,0,0,0,0,0,-2.181,-2.1819,-2.1901,-2.1903,-2.1905,-2.1959,-2.1948,-2.202,-2.1972,-2.1946,-2.1968,-2.1966,-2.202,-2.2026,-2.2044,-2.2118,-2.2121,-2.2069,-2.2072,-2.2074,-2.2075,0,0,0,0,0,0,0,-2.1805,-2.1816,-2.1923,-2.1902,-2.1904,-2.1904,-2.1912,-2.1962,-2.1991,-2.1948,-2.1948,-2.1958,-2.202,-2.204,-2.2046,-2.2122,-2.2069,-2.2073,-2.2076,-2.2078,-2.2248,-2.225,0,0,0,0,0,0,-2.1798,-2.1812,-2.1921,-2.1926,-2.1852,-2.1908,-2.1917,-2.1943,-2.199,-2.1996,-2.1959,-2.1957,-2.2033,-2.2041,-2.2049,-2.2121,-2.2074,-2.2078,-2.2081,-2.2247,-2.2249,-2.2251,0,0,0,0,0,0,-2.1795,-2.1808,-2.1918,-2.1869,-2.1883,-2.1912,-2.1942,-2.1946,-2.1965,-2.1998,-2.2003,-2.1973,-2.2032,-2.2042,-2.2098,-2.2123,-2.208,-2.2084,-2.2244,-2.2247,-2.225,-2.2265,0,0,0,0,0,0,-2.179,-2.1806,-2.1829,-2.1869,-2.1885,-2.1965,-2.1943,-2.1948,-2.1973,-2.1972,-2.2013,-2.2018,-2.2031,-2.2091,-2.2102,-2.2129,-2.2088,-2.2242,-2.2246,-2.2249,-2.2263,-2.2268,-2.2273,0,0,0,0,0,-2.1785,-2.1831,-2.183,-2.1843,-2.1915,-2.1967,-2.1976,-2.199,-2.1975,-2.1998,-2.202,-2.2017,-2.2119,-2.2096,-2.2109,-2.2138,-2.2241,-2.2245,-2.2249,-2.226,-2.2267,-2.2273,0,0,0,0,0,0,-2.1793,-2.1836,-2.1836,-2.1896,-2.1928,-2.1966,-2.1996,-2.1997,-2.2033,-2.203,-2.2046,-2.2056,-2.2111,-2.213,-2.2104,-2.2198,-2.2178,-2.2185,-2.2183,-2.2189,-2.2194,-2.2188,-2.2092,0,0,0,0,0,-2.1802,-2.184,-2.1876,-2.1926,-2.1942,-2.1966,-2.1989,-2.1998,-2.2031,-2.2044,-2.2069,-2.2102,-2.2141,-2.2167,-2.2205,-2.2266,-2.2275,-2.2292,-2.2298,-2.2302,-2.2307,-2.234,-2.2347,-2.2264,-2.2263,-2.2263,0,0,-2.182,-2.1848,-2.1872,-2.1928,-2.1953,-2.1993,-2.1977,-2.202,-2.2049,-2.2051,-2.2104,-2.2124,-2.2161,-2.222,-2.2247,-2.2237,-2.2332,-2.2307,-2.231,-2.2312,-2.2344,-2.2352,-2.2359,-2.2266,-2.2266,-2.2265,0,0,-2.1873,-2.1899,-2.1942,-2.1968,-2.2007,-2.2023,-2.2034,-2.2073,-2.2086,-2.214,-2.2141,-2.2177,-2.2245,-2.2271,-2.2293,-2.2357,-2.2355,-2.2369,-2.2395,-2.2427,-2.2434,-2.244,-2.2461,-2.2469,-2.2374,-2.2374,-2.2374,0,-2.189,-2.195,-2.1965,-2.2007,-2.2032,-2.2035,-2.2079,-2.2104,-2.2153,-2.217,-2.2159,-2.2244,-2.227,-2.2334,-2.2349,-2.2368,-2.238,-2.2363,-2.2432,-2.2438,-2.2443,-2.2464,-2.2472,-2.2376,-2.2376,-2.2375,-2.2375,0,-2.1969,-2.201,-2.2041,-2.2088,-2.2116,-2.216,-2.2181,-2.2208,-2.2214,-2.2231,-2.2286,-2.2317,-2.2361,-2.2377,-2.2384,-2.2442,-2.2435,-2.2428,-2.2408,-2.2452,-2.2472,-2.248,-2.2377,-2.2377,-2.2377,-2.2376,0,0,-2.2028,-2.2083,-2.2094,-2.2115,-2.2158,-2.219,-2.2234,-2.2277,-2.2299,-2.2333,-2.237,-2.2427,-2.2421,-2.2446,-2.2456,-2.2484,-2.2531,-2.2474,-2.2475,-2.2482,-2.2596,-2.26,-2.2609,-2.2531,-2.2533,-2.2534,-2.2592,0,-2.2084,-2.216,-2.2175,-2.2242,-2.228,-2.2284,-2.2322,-2.2353,-2.237,-2.2405,-2.2425,-2.2465,-2.2454,-2.2469,-2.2498,-2.2519,-2.2554,-2.2516,-2.2564,-2.2566,-2.2553,-2.2619,-2.2623,-2.2676,-2.26,-2.2602,-2.2603,0,-2.2159,-2.2195,-2.2265,-2.2303,-2.2319,-2.2353,-2.2393,-2.2427,-2.2462,-2.2473,-2.2501,-2.2508,-2.2553,-2.2533,-2.2595,-2.2569,-2.259,-2.2604,-2.2606,-2.2609,-2.2585,-2.2622,-2.2694,-2.2701,-2.2615,-2.2614,-2.2613,0,-2.2193,-2.2259,-2.2309,-2.2327,-2.2373,-2.2396,-2.2417,-2.245,-2.2475,-2.2511,-2.2527,-2.2568,-2.259,-2.2621,-2.2639,-2.2622,-2.2699,-2.268,-2.2708,-2.2708,-2.2723,-2.2721,-2.2796,-2.274,-2.274,-2.2739,-2.2739,0,-2.2253,-2.2295,-2.2324,-2.2355,-2.2402,-2.242,-2.2466,-2.2487,-2.2516,-2.2551,-2.2558,-2.2591,-2.2613,-2.2648,-2.2663,-2.2711,-2.2722,-2.2731,-2.2734,-2.2729,-2.2728,-2.2742,-2.2738,-2.2742,-2.2741,-2.2741,-2.274,0,-2.2297,-2.2319,-2.2373,-2.2412,-2.2423,-2.2456,-2.249,-2.252,-2.2538,-2.2582,-2.2593,-2.2622,-2.2664,-2.2685,-2.2738,-2.2747,-2.2802,-2.2803,-2.2789,-2.279,-2.2816,-2.2813,-2.2902,-2.2914,-2.2851,-2.2851,-2.2852,0,-2.2333,-2.2365,-2.2408,-2.2432,-2.2452,-2.249,-2.2516,-2.2535,-2.2561,-2.2603,-2.2628,-2.2671,-2.2705,-2.2773,-2.2798,-2.2838,-2.284,-2.2868,-2.2846,-2.284,-2.2838,-2.2835,-2.2838,-2.2871,-2.2872,-2.2872,-2.2873,0,-2.2394,-2.2403,-2.2439,-2.2479,-2.2509,-2.2541,-2.2573,-2.2592,-2.2616,-2.2645,-2.2688,-2.2716,-2.2769,-2.2811,-2.2853,-2.2874,-2.2877,-2.288,-2.2888,-2.2883,-2.2873,-2.2877,-2.2798,-2.2877,-2.2877,-2.2877,-2.2876,-2.2876,-2.2434,-2.2462,-2.2497,-2.2537,-2.2563,-2.2593,-2.2622,-2.2644,-2.2681,-2.2725,-2.2735,-2.278,-2.2815,-2.2872,-2.2894,-2.293,-2.2924,-2.2936,-2.2939,-2.2941,-2.2941,-2.2869,-2.2938,-2.2938,-2.2938,-2.2938,-2.2938,0,-2.2493,-2.2516,-2.2552,-2.2597,-2.2628,-2.2629,-2.2665,-2.2691,-2.273,-2.2762,-2.2797,-2.2846,-2.2887,-2.2916,-2.2957,-2.298,-2.2983,-2.299,-2.2988,-2.2992,-2.2946,-2.2933,-2.2988,-2.2988,-2.2988,-2.2988,-2.2987,-2.2987,-2.2528,-2.2576,-2.2589,-2.2651,-2.2673,-2.2717,-2.2737,-2.2765,-2.279,-2.2845,-2.2879,-2.2897,-2.2928,-2.2972,-2.3009,-2.3017,-2.3031,-2.3039,-2.3046,-2.3001,-2.2996,-2.2991,-2.2979,-2.3042,-2.3042,-2.3089,-2.309,-2.309]},{"header":{"parameterUnit":"m.s-1","parameterCategory":1,"la1":30.2991,"la2":30.254,"lo1":-89.0895,"lo2":-89.0444,"dy":0.0017,"dx":0.0017,"nx":28,"ny":28,"refTime":"2024-03-29T21:00:00:Z","depth":0,"parameterNumber":3,"parameterNumberName":"V-component_of_WINDS"},"data":[0,0,0,0,0,0,0,0,0,0,0,0,0,0,0,0,0,0,0,0,0,0,0,0,0,0,0,0,0,0,0,0,0,0,0,0,0,0,0,0,0,0,0,0,0,0,0,0,0,0,0,0,0,0,0,0,0,0,2.6024,2.6024,0,2.6009,2.6009,2.6009,2.604,2.6041,2.6042,2.6043,2.6023,2.6022,2.602,0,0,0,0,0,0,0,0,0,0,0,0,0,2.6076,2.6075,2.6024,2.6024,2.6024,2.6009,2.6009,2.6009,2.604,2.6041,2.6042,2.6044,2.6024,2.6022,2.602,0,0,0,0,0,0,0,0,0,0,0,0,0,2.6057,2.6075,2.6024,2.6038,2.6039,2.6009,2.6009,2.6009,2.604,2.6041,2.6043,2.6044,2.6024,2.6022,2.602,2.5975,0,0,2.6013,2.6012,0,0,0,0,0,0,0,0,2.6058,2.6055,2.6036,2.6037,2.6038,2.6028,2.602,2.5997,2.6039,2.6039,2.6043,2.6045,2.6023,2.6021,2.6015,2.5974,2.5974,2.6013,2.6012,2.6011,2.601,0,0,0,0,0,0,0,2.6059,2.6055,2.6018,2.6035,2.6037,2.6043,2.6042,2.6016,2.6023,2.6039,2.6042,2.604,2.6024,2.6017,2.6015,2.5973,2.6013,2.6011,2.601,2.6009,2.5897,2.5895,0,0,0,0,0,0,2.6059,2.6056,2.6018,2.6018,2.6052,2.6041,2.604,2.603,2.6023,2.6024,2.6038,2.6041,2.602,2.6017,2.6014,2.5962,2.6011,2.6009,2.6007,2.5899,2.5897,2.5895,0,0,0,0,0,0,2.606,2.6055,2.6019,2.6038,2.6033,2.6039,2.6027,2.6028,2.6021,2.6022,2.6023,2.603,2.6021,2.6017,2.5986,2.5962,2.6008,2.6006,2.59,2.5898,2.5896,2.5858,0,0,0,0,0,0,2.6061,2.6056,2.6039,2.6037,2.6032,2.5991,2.6025,2.6027,2.6018,2.6022,2.6015,2.6015,2.6022,2.5989,2.5983,2.596,2.6004,2.5903,2.5899,2.5896,2.5861,2.5854,2.5848,0,0,0,0,0,2.6063,2.6028,2.6038,2.6033,2.6012,2.599,2.5987,2.5997,2.6016,2.5999,2.6,2.6015,2.5966,2.5985,2.5979,2.5955,2.5904,2.59,2.5897,2.5864,2.5856,2.5849,0,0,0,0,0,0,2.6025,2.6028,2.6039,2.6002,2.5996,2.5995,2.5974,2.5988,2.5975,2.5978,2.599,2.5988,2.5954,2.5951,2.5973,2.5912,2.5938,2.5933,2.5915,2.5907,2.5901,2.5902,2.6002,0,0,0,0,0,2.6013,2.5995,2.5998,2.5965,2.5962,2.5969,2.5959,2.5968,2.5961,2.5958,2.5956,2.5948,2.5931,2.5919,2.5903,2.5861,2.586,2.5842,2.5835,2.583,2.5825,2.5804,2.5796,2.5883,2.5883,2.5883,0,0,2.5986,2.5985,2.5973,2.5958,2.5954,2.5935,2.5966,2.5944,2.593,2.5954,2.5925,2.5923,2.5915,2.5878,2.5862,2.5875,2.5801,2.5825,2.5821,2.5819,2.5799,2.5791,2.5784,2.588,2.5881,2.5881,0,0,2.5928,2.5926,2.5899,2.5895,2.589,2.5895,2.5888,2.5886,2.5887,2.5858,2.5876,2.5859,2.5828,2.5822,2.5815,2.5757,2.5771,2.5752,2.5718,2.5697,2.569,2.5684,2.5664,2.5656,2.5747,2.5747,2.5747,0,2.5895,2.5869,2.5883,2.5861,2.5853,2.5877,2.5849,2.5844,2.5833,2.5827,2.5842,2.5806,2.5801,2.5764,2.5751,2.5744,2.5736,2.5752,2.5691,2.5685,2.5679,2.566,2.5652,2.5745,2.5745,2.5745,2.5745,0,2.5829,2.5811,2.5789,2.578,2.5771,2.5745,2.5755,2.5743,2.5754,2.5757,2.5727,2.5724,2.5708,2.57,2.5708,2.5664,2.5673,2.5689,2.5715,2.5668,2.565,2.5643,2.5741,2.5742,2.5743,2.5743,0,0,2.5745,2.5746,2.5738,2.5735,2.5731,2.5717,2.5693,2.568,2.5669,2.5661,2.5642,2.5617,2.5633,2.5624,2.5633,2.5614,2.557,2.5633,2.5633,2.5621,2.5521,2.5508,2.5499,2.5579,2.5578,2.5577,2.5522,0,2.5688,2.5649,2.5662,2.5622,2.5605,2.5628,2.5608,2.5603,2.5606,2.5591,2.5594,2.5577,2.5599,2.5594,2.5577,2.5579,2.5549,2.5583,2.556,2.5559,2.5561,2.549,2.5476,2.5424,2.5515,2.5513,2.5513,0,2.5616,2.5608,2.5567,2.5568,2.5561,2.5542,2.5532,2.5518,2.5513,2.5517,2.5509,2.5522,2.5498,2.5525,2.5493,2.5515,2.5507,2.5507,2.5505,2.5502,2.5532,2.5485,2.5408,2.54,2.5502,2.5502,2.5503,0,2.5559,2.5537,2.551,2.5507,2.5507,2.5494,2.5493,2.549,2.5482,2.5472,2.5467,2.5454,2.5447,2.5436,2.5445,2.5464,2.5411,2.5439,2.5413,2.5413,2.54,2.54,2.532,2.5395,2.5395,2.5395,2.5396,0,2.5494,2.5468,2.5485,2.5468,2.544,2.5455,2.5426,2.5428,2.5425,2.5409,2.5427,2.5411,2.5424,2.5409,2.5416,2.5388,2.5385,2.5386,2.5388,2.5384,2.5384,2.5378,2.5382,2.5393,2.5394,2.5394,2.5395,0,2.5425,2.5436,2.5408,2.5411,2.5412,2.5391,2.5393,2.5378,2.5383,2.5362,2.5358,2.5365,2.5349,2.5357,2.5339,2.5344,2.5308,2.5315,2.531,2.5312,2.5285,2.5287,2.5197,2.5186,2.5269,2.5269,2.5268,0,2.5383,2.5364,2.5366,2.5357,2.5356,2.5341,2.5334,2.5348,2.5339,2.5333,2.5318,2.5304,2.5293,2.5265,2.5268,2.5255,2.5261,2.5231,2.5259,2.5256,2.5261,2.5262,2.526,2.5225,2.5224,2.5223,2.5222,0,2.5306,2.5313,2.5302,2.5293,2.5284,2.5277,2.5271,2.5263,2.5277,2.5266,2.525,2.5242,2.5225,2.521,2.5199,2.5198,2.5212,2.5214,2.5207,2.5202,2.52,2.5201,2.5294,2.5215,2.5216,2.5216,2.5217,2.5217,2.5249,2.5234,2.5234,2.5221,2.5219,2.5214,2.52,2.5205,2.5192,2.5181,2.519,2.5171,2.5168,2.5155,2.5152,2.5137,2.5149,2.5139,2.5136,2.5133,2.513,2.5204,2.5135,2.5135,2.5135,2.5135,2.5135,0,2.5174,2.5176,2.5164,2.5157,2.5147,2.5164,2.5159,2.5149,2.5133,2.513,2.512,2.5102,2.5088,2.5091,2.5079,2.5066,2.5073,2.5062,2.5063,2.5063,2.512,2.5127,2.5058,2.5058,2.5058,2.5058,2.5058,2.5058,2.5134,2.5109,2.5116,2.509,2.5092,2.5075,2.5071,2.5066,2.5064,2.5044,2.5033,2.5036,2.5035,2.5023,2.5011,2.5013,2.5007,2.4994,2.4998,2.5051,2.5058,2.5066,2.5072,2.4993,2.4993,2.4942,2.4941,2.4941]}]]